Regional Weather Roundup
Issued by NWS

Home | Current Version | Previous Version | Graphics & Text | Print | Product List | Glossary On
Versions: 1 2 3 4 5 6 7 8 9 10 11 12 13 14 15 16 17 18 19 20 21 22 23 24 25 26 27 28 29 30 31 32 33 34 35 36 37 38 39 40 41 42 43 44 45 46 47 48 49 50
000
ASUS43 KLMK 051410
RWRKY
KENTUCKY REGIONAL WEATHER ROUNDUP
NATIONAL WEATHER SERVICE LOUISVILLE KY
1000 AM EDT TUE MAY 05 2015

NOTE "FAIR" INDICATES FEW OR NO CLOUDS BELOW 12,000 FEET
WITH NO SIGNIFICANT WEATHER AND/OR OBSTRUCTIONS TO VISIBILITY.

KYZ001>023-026-027-061>063-070>075-051500-
WESTERN AND SOUTH CENTRAL KENTUCKY

CITY           SKY/WX    TMP DP  RH WIND       PRES   REMARKS
PADUCAH        MOSUNNY   74  56  53 SW7       30.24R
HENDERSON      MOSUNNY   75  54  46 SW10      30.24S
OWENSBORO      SUNNY     74  58  57 SW7       30.27R
HOPKINSVILLE   NOT AVBL
BOWLING GREEN  SUNNY     72  56  57 S7        30.30R
GLASGOW        SUNNY     71  55  57 S3        30.31R
$$

KYZ024-025-028>034-038-045-046-053-051500-
NORTH CENTRAL KENTUCKY

CITY           SKY/WX    TMP DP  RH WIND       PRES   REMARKS
LOUISVILLE/SDF MOSUNNY   75  55  49 SW8       30.27S
LOUISVILLE/LOU SUNNY     73  56  54 S7        30.28S
FORT KNOX      MOSUNNY   73  57  57 SW5       30.27S
$$

KYZ035>037-039>044-047>052-055>060-089>105-051500-
NORTHEAST KENTUCKY

CITY           SKY/WX    TMP DP  RH WIND       PRES   REMARKS
LEXINGTON      SUNNY     72  57  59 SW7       30.31R
COVINGTON      MOSUNNY   72  58  61 SW3       30.27S
FRANKFORT      SUNNY     73  56  54 SW8       30.28S
$$

KYZ054-064>069-076>088-106>120-051500-
SOUTHEAST KENTUCKY

CITY           SKY/WX    TMP DP  RH WIND       PRES   REMARKS
JACKSON        SUNNY     69  54  58 VRB3      30.34R
LONDON         SUNNY     71  52  50 CALM      30.34R
SOMERSET       SUNNY     68  54  60 CALM      30.34S
MIDDLESBORO    SUNNY     64  55  72 CALM      30.36F
MONTICELLO     SUNNY     73  57  57 CALM      30.35S
$$




USA.gov is the U.S. government's official web portal to all federal, state and local government web resources and services.